Starlink 35733

operational
NORAD ID: 66225 Int'l Des: 2025-244 Owner: SPXS Country: US Constellation: starlink
NOTLE

About Starlink 35733

Description loading...

Live Position

Loading 3D Globe...

Upcoming Passes

Altitude History

Altitude vs Time

uPlot chart will show altitude changes over time

Two-Line Element Set

1 66225C 25244U 25301.73798611 .02415900 00000+0 35371-2 0 3019
2 66225 53.1569 134.0917 0010684 272.2103 327.7644 16.01915204 16
Epoch: Oct 28, 2025 • Age: 69 hours

Current Status

Altitude 234.6 km
Velocity 7.77 km/s
Sub-Earth Point 8.48°N, 135.15°E
Launch Date Oct 28, 2025
Age 2 days
Type internet

Technical Details

Classification Payload
Mass 575.00 kg
Dry Mass 530.00 kg
Total Mass 575.00 kg
Length 0.30 m
Diameter 4.10 m
Span 29.00 m
Shape Box + pan
Manufacturer SPXS
Bus Type Starlink V2MO
Phase Status In Orbit
Owner/State SPXS/US

Large Constellations

Loading constellations...